Location: Jackson
(42.2460°N, 84.4010°W)
Time: 09:22:51
(UTC-05:00)

ISS - Pass Details

Date: 19 January 2026
Orbit: 413 x 428 km, 51.6° (Epoch: 13 February)

Event Time Altitude Azimuth Distance (km) Brightness Sun altitude
Rises 18:45:53 0° 286° (WNW) 2,360 1.1 -12.9°
Reaches altitude 10° 18:48:27 10° 306° (NW) 1,501 -0.4 -13.4°
Maximum altitude 18:50:51 18° 351° (N) 1,115 -1.7 -13.8°
Enters shadow 18:52:16 14° 22° (NNE) 1,268 -1.7 -14.1°
